When you browse on this site, cookies collect data to enhance your experience and personalize the content and advertising you see.
Visit our Privacy Policy to learn more. By continuing to use the site, you agree to this use of cookies and data.
  • In United Kingdom
  • List of Countries
  • For 7 days
  • Water Temperature
  • Satellite Maps
  • Weather Map
  • Weather Widgets
  • user-avatar
    Login

    Hourly Weather Santa Catarina Juquila

    Today, 20 June, Thursday

    Time Temperature Precipitation Wind Pressure Humidity
    00:00 +19°C° 0.4 mm 1 mps 637 mmHg 91%
    01:00 +19°C° 0.2 mm 1 mps 637 mmHg 91%
    02:00 +19°C° 0.2 mm 1 mps 636 mmHg 91%
    03:00 +19°C° 0.2 mm 1 mps 636 mmHg 90%
    04:00 +19°C° 0 mm 1 mps 636 mmHg 90%
    05:00 +19°C° 0 mm 1 mps 635 mmHg 89%
    06:00 +18°C° 0 mm 1 mps 635 mmHg 89%
    07:00 +21°C° 0 mm 1 mps 636 mmHg 80%
    08:00 +23°C° 0 mm 1 mps 638 mmHg 72%
    09:00 +24°C° 0 mm 0 mps 639 mmHg 64%
    10:00 +26°C° 0.1 mm 1 mps 639 mmHg 61%
    11:00 +27°C° 0.1 mm 2 mps 639 mmHg 58%
    12:00 +28°C° 0.1 mm 2 mps 639 mmHg 55%
    13:00 +28°C° 1.1 mm 2 mps 639 mmHg 59%
    14:00 +27°C° 1.1 mm 2 mps 638 mmHg 64%
    15:00 +26°C° 1.1 mm 2 mps 637 mmHg 69%
    16:00 +25°C° 1 mm 2 mps 637 mmHg 73%
    17:00 +24°C° 1 mm 1 mps 636 mmHg 78%
    18:00 +23°C° 1 mm 1 mps 636 mmHg 82%
    19:00 +22°C° 0.8 mm 1 mps 636 mmHg 85%
    20:00 +21°C° 0.8 mm 1 mps 636 mmHg 88%
    21:00 +20°C° 0.8 mm 1 mps 636 mmHg 91%
    22:00 +20°C° 0.5 mm 1 mps 637 mmHg 91%
    23:00 +20°C° 0.5 mm 1 mps 637 mmHg 90%

    Tomorrow, 21 June, Friday

    Time Temperature Precipitation Wind Pressure Humidity
    00:00 +19°C° 0.5 mm 1 mps 637 mmHg 89%
    01:00 +19°C° 0.1 mm 1 mps 637 mmHg 88%
    02:00 +19°C° 0.1 mm 1 mps 636 mmHg 88%
    03:00 +19°C° 0.1 mm 1 mps 636 mmHg 87%
    04:00 +19°C° 0 mm 1 mps 636 mmHg 86%
    05:00 +19°C° 0 mm 1 mps 636 mmHg 86%
    06:00 +19°C° 0 mm 1 mps 636 mmHg 85%
    07:00 +21°C° 0 mm 1 mps 637 mmHg 78%
    08:00 +23°C° 0 mm 1 mps 638 mmHg 70%
    09:00 +24°C° 0 mm 0 mps 639 mmHg 62%
    10:00 +26°C° 0.2 mm 1 mps 639 mmHg 61%
    11:00 +27°C° 0.2 mm 1 mps 639 mmHg 59%
    12:00 +28°C° 0.2 mm 2 mps 639 mmHg 57%
    13:00 +27°C° 1.9 mm 2 mps 639 mmHg 62%
    14:00 +27°C° 1.9 mm 2 mps 638 mmHg 66%
    15:00 +26°C° 1.9 mm 1 mps 637 mmHg 71%
    16:00 +25°C° 2 mm 1 mps 637 mmHg 75%
    17:00 +24°C° 2 mm 1 mps 637 mmHg 79%
    18:00 +23°C° 2 mm 1 mps 637 mmHg 83%
    19:00 +22°C° 1.1 mm 1 mps 637 mmHg 85%
    20:00 +19°C° 1.1 mm 0 mps 637 mmHg 87%
    21:00 +18°C° 1.1 mm 0 mps 638 mmHg 89%
    22:00 +18°C° 1.2 mm 0 mps 638 mmHg 90%
    23:00 +18°C° 1.2 mm 0 mps 638 mmHg 90%

    Day after tomorrow, 22 June, Saturday

    Time Temperature Precipitation Wind Pressure Humidity
    00:00 +17°C° 1.2 mm 0 mps 638 mmHg 91%
    01:00 +19°C° 0.1 mm 1 mps 637 mmHg 90%
    02:00 +19°C° 0.1 mm 1 mps 637 mmHg 89%
    03:00 +19°C° 0.1 mm 1 mps 637 mmHg 88%
    04:00 +19°C° 0 mm 1 mps 636 mmHg 87%
    05:00 +19°C° 0 mm 1 mps 636 mmHg 86%
    06:00 +19°C° 0 mm 1 mps 636 mmHg 86%
    07:00 +21°C° 0 mm 1 mps 637 mmHg 78%
    08:00 +23°C° 0 mm 1 mps 638 mmHg 70%
    09:00 +23°C° 0 mm 0 mps 639 mmHg 63%
    10:00 +26°C° 0.1 mm 1 mps 640 mmHg 59%
    11:00 +27°C° 0.1 mm 2 mps 640 mmHg 55%
    12:00 +28°C° 0.1 mm 2 mps 640 mmHg 52%
    13:00 +27°C° 0.9 mm 2 mps 639 mmHg 58%
    14:00 +26°C° 0.9 mm 2 mps 638 mmHg 64%
    15:00 +25°C° 0.9 mm 2 mps 638 mmHg 70%
    16:00 +24°C° 0.4 mm 1 mps 637 mmHg 75%
    17:00 +23°C° 0.4 mm 1 mps 637 mmHg 79%
    18:00 +22°C° 0.4 mm 1 mps 637 mmHg 84%
    19:00 +21°C° 1.4 mm 1 mps 637 mmHg 87%
    20:00 +18°C° 1.4 mm 0 mps 637 mmHg 90%
    21:00 +18°C° 1.4 mm 0 mps 638 mmHg 93%
    22:00 +17°C° 1.1 mm 0 mps 638 mmHg 93%
    23:00 +17°C° 1.1 mm 0 mps 638 mmHg 93%

    23 June, Sunday

    Time Temperature Precipitation Wind Pressure Humidity
    00:00 +19°C° 1.1 mm 1 mps 638 mmHg 94%
    01:00 +17°C° 0.6 mm 0 mps 637 mmHg 93%
    02:00 +17°C° 0.6 mm 0 mps 637 mmHg 92%
    03:00 +17°C° 0.6 mm 0 mps 637 mmHg 91%
    04:00 +17°C° 0.1 mm 0 mps 637 mmHg 90%
    05:00 +19°C° 0.1 mm 1 mps 637 mmHg 89%
    06:00 +19°C° 0.1 mm 1 mps 637 mmHg 89%
    07:00 +20°C° 0.2 mm 1 mps 637 mmHg 84%
    08:00 +20°C° 0.2 mm 0 mps 638 mmHg 79%
    09:00 +21°C° 0.2 mm 0 mps 639 mmHg 75%
    10:00 +24°C° 0.8 mm 1 mps 639 mmHg 74%
    11:00 +24°C° 0.8 mm 1 mps 639 mmHg 74%
    12:00 +24°C° 0.8 mm 2 mps 639 mmHg 74%
    13:00 +24°C° 1.1 mm 2 mps 638 mmHg 75%
    14:00 +24°C° 1.1 mm 2 mps 638 mmHg 77%
    15:00 +23°C° 1.1 mm 2 mps 637 mmHg 78%
    16:00 +23°C° 0.6 mm 1 mps 637 mmHg 82%
    17:00 +22°C° 0.6 mm 1 mps 636 mmHg 86%
    18:00 +21°C° 0.6 mm 1 mps 636 mmHg 90%
    19:00 +20°C° 0.7 mm 1 mps 636 mmHg 91%
    20:00 +18°C° 0.7 mm 0 mps 637 mmHg 93%
    21:00 +17°C° 0.7 mm 0 mps 637 mmHg 94%
    22:00 +17°C° 0.7 mm 0 mps 637 mmHg 93%
    23:00 +17°C° 0.7 mm 0 mps 637 mmHg 92%

    24 June, Monday

    Time Temperature Precipitation Wind Pressure Humidity
    00:00 +18°C° 0.7 mm 1 mps 637 mmHg 91%
    01:00 +18°C° 0 mm 1 mps 636 mmHg 90%
    02:00 +18°C° 0 mm 1 mps 636 mmHg 89%
    03:00 +18°C° 0 mm 1 mps 636 mmHg 88%
    04:00 +18°C° 0 mm 1 mps 636 mmHg 87%
    05:00 +18°C° 0 mm 1 mps 636 mmHg 86%
    06:00 +16°C° 0 mm 1 mps 636 mmHg 85%
    07:00 +20°C° 0 mm 1 mps 637 mmHg 78%
    08:00 +22°C° 0 mm 1 mps 638 mmHg 70%
    09:00 +24°C° 0 mm 1 mps 639 mmHg 62%
    10:00 +25°C° 0 mm 1 mps 639 mmHg 59%
    11:00 +26°C° 0 mm 1 mps 639 mmHg 56%
    12:00 +27°C° 0 mm 2 mps 639 mmHg 53%
    13:00 +26°C° 0.8 mm 2 mps 638 mmHg 60%
    14:00 +25°C° 0.8 mm 2 mps 637 mmHg 66%
    15:00 +25°C° 0.8 mm 2 mps 637 mmHg 73%
    16:00 +23°C° 1.6 mm 2 mps 636 mmHg 79%
    17:00 +22°C° 1.6 mm 1 mps 636 mmHg 85%
    18:00 +21°C° 1.6 mm 1 mps 636 mmHg 91%
    19:00 +20°C° 0.8 mm 1 mps 636 mmHg 92%
    20:00 +20°C° 0.8 mm 1 mps 636 mmHg 94%
    21:00 +17°C° 0.8 mm 0 mps 636 mmHg 95%
    22:00 +17°C° 0.4 mm 0 mps 636 mmHg 95%
    23:00 +16°C° 0.4 mm 0 mps 637 mmHg 95%

    25 June, Tuesday

    Time Temperature Precipitation Wind Pressure Humidity
    00:00 +16°C° 0.4 mm 0 mps 637 mmHg 96%
    01:00 +16°C° 0.3 mm 0 mps 636 mmHg 95%
    02:00 +16°C° 0.3 mm 0 mps 636 mmHg 95%
    03:00 +16°C° 0.3 mm 0 mps 636 mmHg 95%
    04:00 +16°C° 0.1 mm 1 mps 636 mmHg 94%
    05:00 +16°C° 0.1 mm 1 mps 636 mmHg 93%
    06:00 +16°C° 0.1 mm 1 mps 636 mmHg 92%
    07:00 +19°C° 0 mm 1 mps 637 mmHg 85%
    08:00 +19°C° 0 mm 0 mps 638 mmHg 78%
    09:00 +21°C° 0 mm 0 mps 639 mmHg 71%
    10:00 +24°C° 0.3 mm 1 mps 639 mmHg 68%
    11:00 +25°C° 0.3 mm 1 mps 639 mmHg 65%
    12:00 +26°C° 0.3 mm 2 mps 639 mmHg 62%
    13:00 +26°C° 1 mm 2 mps 638 mmHg 64%
    14:00 +25°C° 1 mm 2 mps 638 mmHg 67%
    15:00 +25°C° 1 mm 1 mps 637 mmHg 70%
    16:00 +24°C° 0.7 mm 1 mps 637 mmHg 74%
    17:00 +23°C° 0.7 mm 1 mps 636 mmHg 78%
    18:00 +23°C° 0.7 mm 1 mps 636 mmHg 81%
    19:00 +21°C° 1.3 mm 1 mps 636 mmHg 85%
    20:00 +18°C° 1.3 mm 0 mps 636 mmHg 89%
    21:00 +17°C° 1.3 mm 0 mps 636 mmHg 93%
    22:00 +17°C° 0.4 mm 0 mps 636 mmHg 93%
    23:00 +17°C° 0.4 mm 0 mps 637 mmHg 93%
    Show more